Regional Weather Roundup
Issued by NWS

Home | Current Version | Previous Version | Graphics & Text | Print | Product List | Glossary On
Versions: 1 2 3 4 5 6 7 8 9 10 11 12 13 14 15 16 17 18 19 20 21 22 23 24 25 26 27 28 29 30 31 32 33 34 35 36 37 38 39 40 41 42 43 44 45 46 47 48 49 50
674
ASUS45 KSLC 300210
RWRUT

UTAH REGIONAL WEATHER ROUNDUP
NATIONAL WEATHER SERVICE SALT LAKE CITY UT
800 PM MDT WED MAR 29 2017

UTZ001>011-023>025-300300-

NORTHERN UTAH

CITY           SKY/WX    TMP DP  RH WIND       PRES   REMARKS
BRIGHAM CITY   MOCLDY    52  32  45 SW5       30.10F
HILL AFB       CLOUDY    51  27  39 CALM      30.10F
LOGAN          CLOUDY    54  33  45 SE8       30.08S
OGDEN          MOCLDY    51  30  44 CALM      30.09F
SALT LAKE CITY MOCLDY    54  34  46 N5        30.09F
TOOELE VALLEY  CLEAR     50  37  62 CALM      30.10F
WENDOVER       MOCLDY    56  33  42 SE7       30.07F
HEBER CITY     PTCLDY    48  28  46 SW10      30.07F
WEST JORDAN    CLEAR     53  42  65 NW3       30.11F

$$

UTZ011>015-024>027-300300-

CENTRAL/NORTHEAST UTAH

CITY           SKY/WX    TMP DP  RH WIND       PRES   REMARKS
PROVO AIRPORT  CLEAR     53  35  50 W3        30.11F
MOAB/CANYONLAN CLEAR     55  19  24 SW3       30.00F
DELTA          CLEAR     48  36  61 S7        30.12F
PRICE          CLEAR     52  31  44 W16       30.06R
RICHFIELD      CLEAR     52  32  46 NW3       30.14S
ROOSEVELT      CLEAR     54  34  47 CALM      30.05S
VERNAL         CLEAR     52  25  35 CALM      30.03F

$$

UTZ013>016-019>022-027-300300-

SOUTHERN UTAH

CITY           SKY/WX    TMP DP  RH WIND       PRES   REMARKS
BRYCE CANYON   CLEAR     46  28  49 W13       30.15S
CEDAR CITY     CLEAR     50  31  48 CALM      30.11F
MILFORD        CLEAR     52  34  50 NE3       30.11F
ST GEORGE      PTCLDY    69  28  21 SW7       30.01R
HANKSVILLE     CLEAR     59  18  20 S3        30.03S
KANAB          CLEAR     59  25  27 N2        30.10S
BLANDING       CLEAR     50  20  30 NW9       30.13R

$$

REGIONAL REPORTS     COLORADO/ARIZONA

CITY           SKY/WX    TMP DP  RH WIND       PRES   REMARKS
CRAIG, CO      CLEAR     41  27  57 SW8       30.05F
GRAND JUNCTION CLEAR     55  27  34 W6        30.00S
RIFLE, CO      CLEAR     52  26  36 N5        30.03S
MONTROSE, CO   CLEAR     51  26  37 CALM      30.06S
CORTEZ, CO     CLEAR     52  22  30 NW10      30.03S
COLORADO CITY    N/A     61  30  31 NW7       30.11S
PAGE, AZ       CLEAR     63  18  17 S3        30.00S
GRAND CANYON   CLEAR     47  25  42 CALM      30.14S
KINGMAN, AZ    CLEAR     62   6  11 NE8       30.05R
FLAGSTAFF, AZ  CLEAR     48  21  34 CALM      30.13R

$$

REGIONAL REPORTS    NEVADA/IDAHO/WYOMING

CITY           SKY/WX    TMP DP  RH WIND       PRES   REMARKS
LAS VEGAS, NV  PTCLDY    75  20  12 CALM      29.98F
ELY, NY        PTCLDY    54  30  40 CALM      30.11F
ELKO, NV       CLOUDY    56  40  55 CALM      30.06F
POCATELLO, ID  CLOUDY    54  37  52 SW13      30.04F
BURLEY, ID     CLOUDY    54  37  52 SE7       30.00F
FORT BRIDGER,    N/A     44  29  55 W12       30.11F
EVANSTON, WY   CLOUDY    42  27  55 W15       30.11F
ROCK SPRINGS,  CLOUDY    46  29  51 W16       30.03F
KEMMERER, WY     N/A     39  30  70 W3        30.10S

$$




USA.gov is the U.S. government's official web portal to all federal, state and local government web resources and services.